• In Hungary
  • List of Countries
  • For 7 days
  • Water Temperature
  • Satellite Maps
  • Weather Map
  • News
  • Weather Widgets
  • user-avatar
    Login

    Hourly Weather Buczkowice

    Today, 23 September, Sunday

    Time Temperature Precipitation Wind Pressure Humidity
    00:00 +12°C° 0.1 mm 2 mps 725 mmHg 69%
    01:00 +11°C° 0 mm 3 mps 724 mmHg 68%
    02:00 +11°C° 0.1 mm 3 mps 724 mmHg 71%
    03:00 +10°C° 0.1 mm 3 mps 724 mmHg 73%
    04:00 +10°C° 0.1 mm 2 mps 724 mmHg 76%
    05:00 +10°C° 0 mm 3 mps 724 mmHg 75%
    06:00 +10°C° 0 mm 3 mps 724 mmHg 74%
    07:00 +11°C° 0 mm 3 mps 723 mmHg 70%
    08:00 +12°C° 0 mm 4 mps 723 mmHg 64%
    09:00 +13°C° 0 mm 4 mps 723 mmHg 58%
    10:00 +15°C° 0 mm 5 mps 723 mmHg 53%
    11:00 +15°C° 0 mm 5 mps 723 mmHg 56%
    12:00 +14°C° 0 mm 5 mps 723 mmHg 59%
    13:00 +14°C° 0 mm 5 mps 722 mmHg 61%
    14:00 +14°C° 0.2 mm 5 mps 721 mmHg 66%
    15:00 +13°C° 0.2 mm 5 mps 720 mmHg 71%
    16:00 +12°C° 0.2 mm 5 mps 720 mmHg 76%
    17:00 +12°C° 0 mm 5 mps 718 mmHg 77%
    18:00 +12°C° 0 mm 5 mps 717 mmHg 77%
    19:00 +12°C° 0 mm 5 mps 716 mmHg 77%
    20:00 +13°C° 0.1 mm 6 mps 715 mmHg 76%
    21:00 +13°C° 0.1 mm 6 mps 714 mmHg 75%
    22:00 +14°C° 0.1 mm 7 mps 713 mmHg 74%
    23:00 +14°C° 3 mm 7 mps 713 mmHg 79%

    Tomorrow, 24 September, Monday

    Time Temperature Precipitation Wind Pressure Humidity
    00:00 +14°C° 3 mm 7 mps 713 mmHg 84%
    01:00 +14°C° 3 mm 7 mps 713 mmHg 89%
    02:00 +11°C° 1 mm 8 mps 714 mmHg 88%
    03:00 +9°C° 1 mm 8 mps 716 mmHg 87%
    04:00 +7°C° 1 mm 9 mps 717 mmHg 87%
    05:00 +6°C° 0.2 mm 8 mps 718 mmHg 87%
    06:00 +6°C° 0.2 mm 7 mps 720 mmHg 87%
    07:00 +6°C° 0.2 mm 5 mps 721 mmHg 87%
    08:00 +7°C° 0.3 mm 6 mps 722 mmHg 84%
    09:00 +6°C° 0.3 mm 7 mps 723 mmHg 81%
    10:00 +6°C° 0.3 mm 7 mps 724 mmHg 79%
    11:00 +8°C° 0.2 mm 7 mps 725 mmHg 74%
    12:00 +7°C° 0.2 mm 8 mps 725 mmHg 69%
    13:00 +9°C° 0.2 mm 8 mps 726 mmHg 64%
    14:00 +8°C° 0.3 mm 7 mps 726 mmHg 65%
    15:00 +8°C° 0.3 mm 7 mps 726 mmHg 65%
    16:00 +8°C° 0.3 mm 7 mps 726 mmHg 65%
    17:00 +7°C° 0.1 mm 6 mps 726 mmHg 68%
    18:00 +6°C° 0.1 mm 5 mps 726 mmHg 71%
    19:00 +5°C° 0.1 mm 4 mps 727 mmHg 74%
    20:00 +5°C° 0.1 mm 4 mps 727 mmHg 74%
    21:00 +4°C° 0.1 mm 4 mps 728 mmHg 74%
    22:00 +4°C° 0.1 mm 4 mps 728 mmHg 75%
    23:00 +4°C° 0.3 mm 4 mps 729 mmHg 78%

    Day after tomorrow, 25 September, Tuesday

    Time Temperature Precipitation Wind Pressure Humidity
    00:00 +4°C° 0.3 mm 4 mps 729 mmHg 81%
    01:00 +4°C° 0.3 mm 4 mps 729 mmHg 85%
    02:00 +4°C° 0.3 mm 4 mps 730 mmHg 86%
    03:00 +4°C° 0.3 mm 4 mps 730 mmHg 87%
    04:00 +4°C° 0.3 mm 3 mps 731 mmHg 89%
    05:00 +4°C° 0.1 mm 3 mps 731 mmHg 88%
    06:00 +4°C° 0.1 mm 3 mps 732 mmHg 86%
    07:00 +4°C° 0.1 mm 3 mps 732 mmHg 85%
    08:00 +4°C° 0.1 mm 3 mps 733 mmHg 82%
    09:00 +5°C° 0.1 mm 3 mps 733 mmHg 78%
    10:00 +7°C° 0.1 mm 3 mps 734 mmHg 75%
    11:00 +7°C° 0.2 mm 4 mps 734 mmHg 72%
    12:00 +7°C° 0.2 mm 4 mps 734 mmHg 68%
    13:00 +8°C° 0.2 mm 4 mps 734 mmHg 65%
    14:00 +8°C° 0.2 mm 4 mps 734 mmHg 66%
    15:00 +8°C° 0.2 mm 4 mps 734 mmHg 66%
    16:00 +9°C° 0.2 mm 3 mps 734 mmHg 66%
    17:00 +8°C° 0 mm 3 mps 734 mmHg 71%
    18:00 +6°C° 0 mm 2 mps 735 mmHg 76%
    19:00 +6°C° 0 mm 1 mps 735 mmHg 81%
    20:00 +6°C° 0 mm 1 mps 735 mmHg 82%
    21:00 +5°C° 0 mm 1 mps 736 mmHg 84%
    22:00 +5°C° 0 mm 1 mps 736 mmHg 85%
    23:00 +4°C° 0 mm 1 mps 736 mmHg 86%

    26 September, Wednesday

    Time Temperature Precipitation Wind Pressure Humidity
    00:00 +4°C° 0 mm 1 mps 736 mmHg 87%
    01:00 +4°C° 0 mm 1 mps 736 mmHg 87%
    02:00 +4°C° 0 mm 1 mps 736 mmHg 88%
    03:00 +3°C° 0 mm 1 mps 736 mmHg 88%
    04:00 +3°C° 0 mm 1 mps 736 mmHg 89%
    05:00 +4°C° 0 mm 1 mps 736 mmHg 86%
    06:00 +5°C° 0 mm 1 mps 736 mmHg 83%
    07:00 +5°C° 0 mm 1 mps 736 mmHg 80%
    08:00 +7°C° 0 mm 1 mps 736 mmHg 71%
    09:00 +8°C° 0 mm 2 mps 736 mmHg 62%
    10:00 +10°C° 0 mm 2 mps 736 mmHg 52%
    11:00 +11°C° 0 mm 3 mps 736 mmHg 50%
    12:00 +12°C° 0 mm 3 mps 735 mmHg 47%
    13:00 +13°C° 0 mm 3 mps 735 mmHg 44%
    14:00 +13°C° 0 mm 3 mps 734 mmHg 47%
    15:00 +13°C° 0 mm 3 mps 734 mmHg 50%
    16:00 +12°C° 0 mm 3 mps 733 mmHg 52%
    17:00 +11°C° 0 mm 3 mps 733 mmHg 58%
    18:00 +9°C° 0 mm 3 mps 733 mmHg 63%
    19:00 +7°C° 0 mm 3 mps 733 mmHg 68%
    20:00 +8°C° 0 mm 3 mps 732 mmHg 66%
    21:00 +8°C° 0 mm 3 mps 732 mmHg 65%
    22:00 +8°C° 0 mm 3 mps 732 mmHg 63%
    23:00 +7°C° 0 mm 3 mps 732 mmHg 63%

    27 September, Thursday

    Time Temperature Precipitation Wind Pressure Humidity
    00:00 +7°C° 0 mm 3 mps 732 mmHg 63%
    01:00 +7°C° 0 mm 3 mps 732 mmHg 63%
    02:00 +7°C° 0 mm 3 mps 731 mmHg 63%
    03:00 +7°C° 0 mm 3 mps 731 mmHg 62%
    04:00 +7°C° 0 mm 3 mps 731 mmHg 62%
    05:00 +7°C° 0 mm 3 mps 731 mmHg 60%
    06:00 +8°C° 0 mm 3 mps 731 mmHg 58%
    07:00 +9°C° 0 mm 3 mps 731 mmHg 57%
    08:00 +11°C° 0 mm 3 mps 731 mmHg 53%
    09:00 +13°C° 0 mm 3 mps 731 mmHg 50%
    10:00 +16°C° 0 mm 3 mps 731 mmHg 47%
    11:00 +17°C° 0 mm 3 mps 731 mmHg 48%
    12:00 +19°C° 0 mm 3 mps 730 mmHg 49%
    13:00 +20°C° 0 mm 3 mps 730 mmHg 50%
    14:00 +20°C° 0 mm 3 mps 730 mmHg 53%
    15:00 +19°C° 0 mm 2 mps 729 mmHg 57%
    16:00 +19°C° 0 mm 2 mps 729 mmHg 60%
    17:00 +17°C° 0 mm 2 mps 729 mmHg 66%
    18:00 +15°C° 0 mm 2 mps 729 mmHg 71%
    19:00 +13°C° 0 mm 2 mps 729 mmHg 76%
    20:00 +13°C° 0 mm 2 mps 728 mmHg 77%
    21:00 +13°C° 0 mm 2 mps 728 mmHg 77%
    22:00 +12°C° 0 mm 2 mps 728 mmHg 78%
    23:00 +12°C° 0 mm 2 mps 728 mmHg 78%

    28 September, Friday

    Time Temperature Precipitation Wind Pressure Humidity
    00:00 +12°C° 0 mm 2 mps 727 mmHg 79%
    01:00 +12°C° 0 mm 2 mps 727 mmHg 79%
    02:00 +12°C° 0 mm 2 mps 727 mmHg 79%
    03:00 +10°C° 0 mm 2 mps 726 mmHg 80%
    04:00 +10°C° 0 mm 2 mps 726 mmHg 80%
    05:00 +12°C° 0 mm 2 mps 726 mmHg 78%
    06:00 +13°C° 0 mm 2 mps 726 mmHg 76%
    07:00 +13°C° 0 mm 2 mps 726 mmHg 74%
    08:00 +15°C° 0 mm 2 mps 726 mmHg 66%
    09:00 +18°C° 0 mm 3 mps 726 mmHg 57%
    10:00 +20°C° 0 mm 3 mps 726 mmHg 49%
    11:00 +20°C° 0 mm 3 mps 726 mmHg 47%
    12:00 +21°C° 0 mm 3 mps 725 mmHg 44%
    13:00 +22°C° 0 mm 3 mps 725 mmHg 42%
    14:00 +21°C° 0 mm 2 mps 725 mmHg 45%
    15:00 +21°C° 0 mm 2 mps 725 mmHg 48%
    16:00 +21°C° 0 mm 1 mps 724 mmHg 52%
    17:00 +19°C° 0 mm 1 mps 724 mmHg 58%
    18:00 +16°C° 0 mm 1 mps 724 mmHg 64%
    19:00 +13°C° 0 mm 0 mps 724 mmHg 70%
    20:00 +12°C° 0 mm 0 mps 724 mmHg 73%
    21:00 +11°C° 0 mm 0 mps 724 mmHg 76%
    22:00 +11°C° 0 mm 0 mps 724 mmHg 78%
    23:00 +11°C° 0 mm 0 mps 724 mmHg 81%
    Show more